Time,TemperatureF,DewpointF,PressureIn,WindDirection,WindDirectionDegrees,WindSpeedMPH,WindSpeedGustMPH,Humidity,HourlyPrecipIn,Conditions,Clouds,dailyrainin,SolarRadiationWatts/m^2,SoftwareType,DateUTC
2013-11-20 00:21:00,42.0,37.0,-100.00,ENE,72,0.0,3.0,82,0.00,,,0.00,0.000000,,2013-11-20 08:21:00,
2013-11-20 00:32:00,42.0,37.0,-100.00,ENE,72,0.0,3.0,82,0.00,,,0.00,0.000000,,2013-11-20 08:32:00,
2013-11-20 00:42:00,42.0,37.0,-100.00,ENE,72,0.0,3.0,82,0.00,,,0.00,0.000000,,2013-11-20 08:42:00,
2013-11-20 00:52:00,42.0,37.0,-100.00,ENE,72,0.0,3.0,82,0.00,,,0.00,0.000000,,2013-11-20 08:52:00,
2013-11-20 01:21:00,43.0,37.0,-100.00,ENE,78,0.0,4.0,80,0.00,,,0.00,0.000000,,2013-11-20 09:21:00,
2013-11-20 01:33:00,43.0,37.0,-100.00,ENE,78,0.0,4.0,80,0.00,,,0.00,0.000000,,2013-11-20 09:33:00,
2013-11-20 01:43:00,43.0,37.0,-100.00,ENE,78,0.0,4.0,80,0.00,,,0.00,0.000000,,2013-11-20 09:43:00,
2013-11-20 01:53:00,43.0,37.0,-100.00,ENE,78,0.0,4.0,80,0.00,,,0.00,0.000000,,2013-11-20 09:53:00,
2013-11-20 02:23:00,43.0,38.0,-100.00,East,88,0.0,2.0,84,0.00,,,0.00,0.000000,,2013-11-20 10:23:00,
2013-11-20 02:32:00,43.0,38.0,-100.00,East,88,0.0,2.0,84,0.00,,,0.00,0.000000,,2013-11-20 10:32:00,
2013-11-20 02:43:00,43.0,38.0,-100.00,East,88,0.0,2.0,84,0.00,,,0.00,0.000000,,2013-11-20 10:43:00,
2013-11-20 02:53:00,43.0,38.0,-100.00,East,88,0.0,2.0,84,0.00,,,0.00,0.000000,,2013-11-20 10:53:00,
2013-11-20 03:22:00,44.0,39.0,-100.00,East,88,0.0,0.0,82,0.00,,,0.00,0.000000,,2013-11-20 11:22:00,
2013-11-20 03:33:00,44.0,39.0,-100.00,East,88,0.0,0.0,82,0.00,,,0.00,0.000000,,2013-11-20 11:33:00,
2013-11-20 03:42:00,44.0,39.0,-100.00,East,88,0.0,0.0,82,0.00,,,0.00,0.000000,,2013-11-20 11:42:00,
2013-11-20 03:52:00,44.0,39.0,-100.00,East,88,0.0,0.0,82,0.00,,,0.00,0.000000,,2013-11-20 11:52:00,
2013-11-20 04:22:00,42.0,40.0,-100.00,East,82,0.0,0.0,91,0.00,,,0.00,0.000000,,2013-11-20 12:22:00,
2013-11-20 04:32:00,42.0,40.0,-100.00,East,82,0.0,0.0,91,0.00,,,0.00,0.000000,,2013-11-20 12:32:00,
2013-11-20 04:42:00,42.0,40.0,-100.00,East,82,0.0,0.0,91,0.00,,,0.00,0.000000,,2013-11-20 12:42:00,
2013-11-20 04:52:00,42.0,40.0,-100.00,East,82,0.0,0.0,91,0.00,,,0.00,0.000000,,2013-11-20 12:52:00,
2013-11-20 05:21:00,42.0,42.0,-100.00,East,96,0.0,0.0,100,0.01,,,0.01,0.000000,,2013-11-20 13:21:00,
2013-11-20 05:32:00,42.0,42.0,-100.00,East,96,0.0,0.0,100,0.01,,,0.01,0.000000,,2013-11-20 13:32:00,
2013-11-20 05:42:00,42.0,42.0,-100.00,East,96,0.0,0.0,100,0.01,,,0.01,0.000000,,2013-11-20 13:42:00,
2013-11-20 05:52:00,42.0,42.0,-100.00,East,96,0.0,0.0,100,0.01,,,0.01,0.000000,,2013-11-20 13:52:00,
2013-11-20 06:22:00,43.0,43.0,-100.00,ENE,62,0.0,0.0,100,0.00,,,0.01,0.000000,,2013-11-20 14:22:00,
2013-11-20 06:32:00,43.0,43.0,-100.00,ENE,62,0.0,0.0,100,0.00,,,0.01,0.000000,,2013-11-20 14:32:00,
2013-11-20 06:42:00,43.0,43.0,-100.00,ENE,62,0.0,0.0,100,0.00,,,0.01,0.000000,,2013-11-20 14:42:00,
2013-11-20 06:52:00,43.0,43.0,-100.00,ENE,62,0.0,0.0,100,0.00,,,0.01,0.000000,,2013-11-20 14:52:00,
2013-11-20 07:21:00,40.0,40.0,-100.00,ENE,68,0.0,0.0,100,0.00,,,-99.99,2.000000,,2013-11-20 15:21:00,
2013-11-20 07:33:00,40.0,40.0,-100.00,ENE,68,0.0,0.0,100,0.00,,,-99.99,2.000000,,2013-11-20 15:33:00,
2013-11-20 07:43:00,40.0,40.0,-100.00,ENE,68,0.0,0.0,100,0.00,,,-99.99,2.000000,,2013-11-20 15:43:00,
2013-11-20 07:53:00,40.0,40.0,-100.00,ENE,68,0.0,0.0,100,0.00,,,-99.99,2.000000,,2013-11-20 15:53:00,
2013-11-20 08:23:00,43.0,43.0,-100.00,ENE,59,0.0,0.0,100,0.00,,,0.01,51.000000,,2013-11-20 16:23:00,
2013-11-20 08:34:00,43.0,43.0,-100.00,ENE,59,0.0,0.0,100,0.00,,,0.01,51.000000,,2013-11-20 16:34:00,
2013-11-20 08:43:00,43.0,43.0,-100.00,ENE,59,0.0,0.0,100,0.00,,,0.01,51.000000,,2013-11-20 16:43:00,
2013-11-20 08:52:00,43.0,43.0,-100.00,ENE,59,0.0,0.0,100,0.00,,,0.01,51.000000,,2013-11-20 16:52:00,
2013-11-20 09:22:00,51.0,44.0,-100.00,NNE,32,0.0,0.0,78,0.00,,,0.01,179.000000,,2013-11-20 17:22:00,
2013-11-20 09:33:00,51.0,44.0,-100.00,NNE,32,0.0,0.0,78,0.00,,,0.01,179.000000,,2013-11-20 17:33:00,
2013-11-20 09:42:00,51.0,44.0,-100.00,NNE,32,0.0,0.0,78,0.00,,,0.01,179.000000,,2013-11-20 17:42:00,
2013-11-20 09:52:00,51.0,44.0,-100.00,NNE,32,0.0,0.0,78,0.00,,,0.01,179.000000,,2013-11-20 17:52:00,
2013-11-20 10:21:00,52.0,43.0,-100.00,WSW,251,1.0,6.0,70,0.00,,,0.01,387.000000,,2013-11-20 18:21:00,
2013-11-20 10:32:00,52.0,43.0,-100.00,WSW,251,1.0,6.0,70,0.00,,,0.01,387.000000,,2013-11-20 18:32:00,
2013-11-20 10:42:00,52.0,43.0,-100.00,WSW,251,1.0,6.0,70,0.00,,,0.01,387.000000,,2013-11-20 18:42:00,
2013-11-20 10:52:00,52.0,43.0,-100.00,WSW,251,1.0,6.0,70,0.00,,,0.01,387.000000,,2013-11-20 18:52:00,
2013-11-20 11:21:00,57.0,44.0,-100.00,SW,233,3.0,7.0,61,0.00,,,0.01,555.000000,,2013-11-20 19:21:00,
2013-11-20 11:32:00,57.0,44.0,-100.00,SW,233,3.0,7.0,61,0.00,,,0.01,555.000000,,2013-11-20 19:32:00,
2013-11-20 11:42:00,57.0,44.0,-100.00,SW,233,3.0,7.0,61,0.00,,,0.01,555.000000,,2013-11-20 19:42:00,
2013-11-20 11:52:00,57.0,44.0,-100.00,SW,233,3.0,7.0,61,0.00,,,0.01,555.000000,,2013-11-20 19:52:00,
2013-11-20 12:21:00,59.0,42.0,-100.00,SSW,212,4.0,7.0,54,0.00,,,0.01,731.000000,,2013-11-20 20:21:00,
2013-11-20 12:32:00,59.0,42.0,-100.00,SSW,212,4.0,7.0,54,0.00,,,0.01,731.000000,,2013-11-20 20:32:00,
2013-11-20 12:42:00,59.0,42.0,-100.00,SSW,212,4.0,7.0,54,0.00,,,0.01,731.000000,,2013-11-20 20:42:00,
2013-11-20 12:52:00,59.0,42.0,-100.00,SSW,212,4.0,7.0,54,0.00,,,0.01,731.000000,,2013-11-20 20:52:00,
2013-11-20 13:21:00,59.0,42.0,-100.00,WSW,244,3.0,10.0,53,0.00,,,0.01,743.000000,,2013-11-20 21:21:00,
2013-11-20 13:33:00,59.0,42.0,-100.00,WSW,244,3.0,10.0,53,0.00,,,0.01,743.000000,,2013-11-20 21:33:00,
2013-11-20 13:43:00,59.0,42.0,-100.00,WSW,244,3.0,10.0,53,0.00,,,0.01,743.000000,,2013-11-20 21:43:00,
2013-11-20 13:53:00,59.0,42.0,-100.00,WSW,244,3.0,10.0,53,0.00,,,0.01,743.000000,,2013-11-20 21:53:00,
2013-11-20 14:42:00,61.0,43.0,-100.00,SW,217,2.0,9.0,51,0.00,,,0.01,633.000000,,2013-11-20 22:42:00,
2013-11-20 14:53:00,61.0,43.0,-100.00,SW,217,2.0,9.0,51,0.00,,,0.01,633.000000,,2013-11-20 22:53:00,
2013-11-20 15:21:00,60.0,43.0,-100.00,WSW,240,2.0,10.0,54,0.00,,,0.01,450.000000,,2013-11-20 23:21:00,
2013-11-20 15:32:00,60.0,43.0,-100.00,WSW,240,2.0,10.0,54,0.00,,,0.01,450.000000,,2013-11-20 23:32:00,
2013-11-20 15:42:00,60.0,43.0,-100.00,WSW,240,2.0,10.0,54,0.00,,,0.01,450.000000,,2013-11-20 23:42:00,
2013-11-20 15:52:00,60.0,43.0,-100.00,WSW,240,2.0,10.0,54,0.00,,,0.01,450.000000,,2013-11-20 23:52:00,
2013-11-20 16:21:00,53.0,41.0,-100.00,SW,227,0.0,8.0,63,0.00,,,0.01,148.000000,,2013-11-21 00:21:00,
2013-11-20 16:32:00,53.0,41.0,-100.00,SW,227,0.0,8.0,63,0.00,,,0.01,148.000000,,2013-11-21 00:32:00,
2013-11-20 16:42:00,53.0,41.0,-100.00,SW,227,0.0,8.0,63,0.00,,,0.01,148.000000,,2013-11-21 00:42:00,
2013-11-20 16:52:00,53.0,41.0,-100.00,SW,227,0.0,8.0,63,0.00,,,0.01,148.000000,,2013-11-21 00:52:00,
2013-11-20 17:22:00,49.0,41.0,-100.00,NE,56,0.0,5.0,73,0.00,,,0.01,16.000000,,2013-11-21 01:22:00,
2013-11-20 17:32:00,49.0,41.0,-100.00,NE,56,0.0,5.0,73,0.00,,,0.01,16.000000,,2013-11-21 01:32:00,
2013-11-20 17:42:00,49.0,41.0,-100.00,NE,56,0.0,5.0,73,0.00,,,0.01,16.000000,,2013-11-21 01:42:00,
2013-11-20 17:52:00,49.0,41.0,-100.00,NE,56,0.0,5.0,73,0.00,,,0.01,16.000000,,2013-11-21 01:52:00,
2013-11-20 18:21:00,46.0,39.0,-100.00,East,92,0.0,0.0,75,0.00,,,-99.99,0.000000,,2013-11-21 02:21:00,
2013-11-20 18:32:00,46.0,39.0,-100.00,East,92,0.0,0.0,75,0.00,,,-99.99,0.000000,,2013-11-21 02:32:00,
2013-11-20 18:42:00,46.0,39.0,-100.00,East,92,0.0,0.0,75,0.00,,,-99.99,0.000000,,2013-11-21 02:42:00,
2013-11-20 18:52:00,46.0,39.0,-100.00,East,92,0.0,0.0,75,0.00,,,-99.99,0.000000,,2013-11-21 02:52:00,
2013-11-20 19:21:00,48.0,40.0,-100.00,East,98,0.0,5.0,73,0.00,,,0.01,0.000000,,2013-11-21 03:21:00,
2013-11-20 19:33:00,48.0,40.0,-100.00,East,98,0.0,5.0,73,0.00,,,0.01,0.000000,,2013-11-21 03:33:00,
2013-11-20 19:43:00,48.0,40.0,-100.00,East,98,0.0,5.0,73,0.00,,,0.01,0.000000,,2013-11-21 03:43:00,
2013-11-20 19:53:00,48.0,40.0,-100.00,East,98,0.0,5.0,73,0.00,,,0.01,0.000000,,2013-11-21 03:53:00,
2013-11-20 20:23:00,47.0,39.0,-100.00,ESE,108,0.0,2.0,73,0.00,,,0.01,0.000000,,2013-11-21 04:23:00,
2013-11-20 20:33:00,47.0,39.0,-100.00,ESE,108,0.0,2.0,73,0.00,,,0.01,0.000000,,2013-11-21 04:33:00,
2013-11-20 20:43:00,47.0,39.0,-100.00,ESE,108,0.0,2.0,73,0.00,,,0.01,0.000000,,2013-11-21 04:43:00,
2013-11-20 20:53:00,47.0,39.0,-100.00,ESE,108,0.0,2.0,73,0.00,,,0.01,0.000000,,2013-11-21 04:53:00,
2013-11-20 21:22:00,46.0,40.0,-100.00,ENE,65,0.0,3.0,78,0.00,,,0.01,0.000000,,2013-11-21 05:22:00,
2013-11-20 21:32:00,46.0,40.0,-100.00,ENE,65,0.0,3.0,78,0.00,,,0.01,0.000000,,2013-11-21 05:32:00,
2013-11-20 21:42:00,46.0,40.0,-100.00,ENE,65,0.0,3.0,78,0.00,,,0.01,0.000000,,2013-11-21 05:42:00,
2013-11-20 21:52:00,46.0,40.0,-100.00,ENE,65,0.0,3.0,78,0.00,,,0.01,0.000000,,2013-11-21 05:52:00,
2013-11-20 22:22:00,44.0,44.0,-100.00,WNW,283,0.0,4.0,99,0.02,,,0.03,0.000000,,2013-11-21 06:22:00,
2013-11-20 22:33:00,44.0,44.0,-100.00,WNW,283,0.0,4.0,99,0.02,,,0.03,0.000000,,2013-11-21 06:33:00,
2013-11-20 22:43:00,44.0,44.0,-100.00,WNW,283,0.0,4.0,99,0.02,,,0.03,0.000000,,2013-11-21 06:43:00,
2013-11-20 22:52:00,44.0,44.0,-100.00,WNW,283,0.0,4.0,99,0.02,,,0.03,0.000000,,2013-11-21 06:52:00,
2013-11-20 23:22:00,46.0,46.0,-100.00,South,179,0.0,7.0,100,0.10,,,0.13,0.000000,,2013-11-21 07:22:00,
2013-11-20 23:33:00,46.0,46.0,-100.00,South,179,0.0,7.0,100,0.10,,,0.13,0.000000,,2013-11-21 07:33:00,
2013-11-20 23:42:00,46.0,46.0,-100.00,South,179,0.0,7.0,100,0.10,,,0.13,0.000000,,2013-11-21 07:42:00,
2013-11-20 23:52:00,46.0,46.0,-100.00,South,179,0.0,7.0,100,0.10,,,0.13,0.000000,,2013-11-21 07:52:00,